sat.trackr.live / text

‹ back to catalog

STARLINK-35266

NORAD 65804 · 2025-218P

PAYLOAD ACTIVE UNKNOWN

§ Identity

Operator
Country
US
Launch date
2025-09-26
Launch site
AFWTR
Launch vehicle
Mass (kg)
RCS (m²)

Purposes: comms

External: N2YO · Heavens-Above · Gunter

§ Orbital elements

Epoch: 2026-05-25T02:15:22.820832Z

Period
95.64 min
Inclination
97.4529°
Eccentricity
0.0002590
Mean motion
15.05657319 rev/d
Perigee alt
547.7 km
Apogee alt
551.3 km
Semi-major
6,927.6 km
B*
2.2945e-4
RAAN
7.8443°
Arg perigee
81.3453°
Mean anomaly
278.8068°
Rev number
3,646

§ Raw data

STARLINK-352661 65804U 25218P   26145.09401413  .00003254  00000+0  22945-3 0  99992 65804  97.4529   7.8443 0002590  81.3453 278.8068 15.05657319 36467

JSON: /api/v1/satellites/65804 · /tle

For live sub-satellite position, see the globe view (requires WebGL).

§ Visibility from observer

Set your observer location to see the next 7 days of passes ≥ 10°. The values pass through the URL so the page stays shareable.

No JS? Fill the form by hand. The geolocation button needs JavaScript.